Time,TemperatureF,DewpointF,PressureIn,WindDirection,WindDirectionDegrees,WindSpeedMPH,WindSpeedGustMPH,Humidity,HourlyPrecipIn,Conditions,Clouds,dailyrainin,SoftwareType,DateUTC
2013-09-29 00:00:00,55.3,46.1,30.14,WNW,284,0.0,1.0,71,0.00,,---,0.47,VWS V14.01,2013-09-29 05:00:00,
2013-09-29 00:04:00,53.8,46.4,30.14,WNW,284,0.0,0.0,76,0.00,,---,0.00,VWS V14.01,2013-09-29 05:04:00,
2013-09-29 00:05:00,55.3,46.4,30.14,WNW,284,0.0,1.0,72,0.00,,---,0.47,VWS V14.01,2013-09-29 05:05:00,
2013-09-29 00:09:00,53.6,46.2,30.14,WNW,284,0.0,0.0,76,0.00,,---,0.00,VWS V14.01,2013-09-29 05:09:00,
2013-09-29 00:10:00,55.2,46.3,30.14,WNW,284,0.0,1.0,72,0.00,,---,0.47,VWS V14.01,2013-09-29 05:10:00,
2013-09-29 00:14:00,53.5,46.5,30.15,WNW,284,0.0,0.0,77,0.00,,---,0.00,VWS V14.01,2013-09-29 05:14:00,
2013-09-29 00:15:00,55.1,46.6,30.14,WNW,284,0.0,0.0,73,0.00,,---,0.47,VWS V14.01,2013-09-29 05:15:00,
2013-09-29 00:19:00,53.3,46.3,30.15,WNW,284,0.0,1.0,77,0.00,,---,0.00,VWS V14.01,2013-09-29 05:19:00,
2013-09-29 00:20:00,55.0,46.2,30.14,WNW,284,0.0,1.0,72,0.00,,---,0.47,VWS V14.01,2013-09-29 05:20:00,
2013-09-29 00:24:00,53.2,46.2,30.15,WNW,284,1.0,1.0,77,0.00,,---,0.00,VWS V14.01,2013-09-29 05:24:00,
2013-09-29 00:25:00,54.9,46.4,30.14,WNW,284,0.0,2.0,73,0.00,,---,0.47,VWS V14.01,2013-09-29 05:25:00,
2013-09-29 00:29:00,53.1,46.1,30.15,WNW,284,0.0,1.0,77,0.00,,---,0.00,VWS V14.01,2013-09-29 05:29:00,
2013-09-29 00:30:00,54.9,46.8,30.14,WNW,284,0.0,2.0,74,0.00,,---,0.47,VWS V14.01,2013-09-29 05:30:00,
2013-09-29 00:34:00,53.0,46.0,30.15,WNW,284,0.0,1.0,77,0.00,,---,0.00,VWS V14.01,2013-09-29 05:34:00,
2013-09-29 00:35:00,54.8,46.7,30.14,WNW,284,0.0,0.0,74,0.00,,---,0.47,VWS V14.01,2013-09-29 05:35:00,
2013-09-29 00:39:00,53.0,46.0,30.14,WNW,284,0.0,2.0,77,0.00,,---,0.00,VWS V14.01,2013-09-29 05:39:00,
2013-09-29 00:40:00,54.6,46.5,30.14,WNW,284,0.0,0.0,74,0.00,,---,0.47,VWS V14.01,2013-09-29 05:40:00,
2013-09-29 00:44:00,52.9,45.9,30.15,WNW,284,0.0,1.0,77,0.00,,---,0.00,VWS V14.01,2013-09-29 05:44:00,
2013-09-29 00:45:00,54.4,46.3,30.14,WNW,284,0.0,0.0,74,0.00,,---,0.47,VWS V14.01,2013-09-29 05:45:00,
2013-09-29 00:49:00,52.8,46.1,30.15,WNW,284,0.0,2.0,78,0.00,,---,0.00,VWS V14.01,2013-09-29 05:49:00,
2013-09-29 00:50:00,54.2,46.1,30.14,WNW,284,0.0,0.0,74,0.00,,---,0.47,VWS V14.01,2013-09-29 05:50:00,
2013-09-29 00:54:00,52.7,46.0,30.15,WNW,284,0.0,3.0,78,0.00,,---,0.00,VWS V14.01,2013-09-29 05:54:00,
2013-09-29 00:55:00,54.0,46.3,30.14,WNW,284,0.0,0.0,75,0.00,,---,0.47,VWS V14.01,2013-09-29 05:55:00,
2013-09-29 01:00:00,52.5,46.2,30.14,WNW,284,0.0,0.0,79,0.00,,---,0.00,VWS V14.01,2013-09-29 06:00:00,
2013-09-29 01:05:00,52.3,46.3,30.15,WNW,284,0.0,2.0,80,0.00,,---,0.00,VWS V14.01,2013-09-29 06:05:00,
2013-09-29 01:10:00,52.2,46.5,30.14,WNW,284,1.0,2.0,81,0.00,,---,0.00,VWS V14.01,2013-09-29 06:10:00,
2013-09-29 01:15:00,52.1,46.8,30.14,WNW,284,0.0,2.0,82,0.00,,---,0.00,VWS V14.01,2013-09-29 06:15:00,
2013-09-29 01:20:00,52.0,47.0,30.15,West,276,0.0,3.0,83,0.00,,---,0.00,VWS V14.01,2013-09-29 06:20:00,
2013-09-29 01:25:00,52.0,47.0,30.15,West,275,0.0,3.0,83,0.00,,---,0.00,VWS V14.01,2013-09-29 06:25:00,
2013-09-29 01:30:00,51.9,46.9,30.15,West,275,0.0,1.0,83,0.00,,---,0.00,VWS V14.01,2013-09-29 06:30:00,
2013-09-29 01:35:00,51.8,47.1,30.15,West,275,0.0,1.0,84,0.00,,---,0.00,VWS V14.01,2013-09-29 06:35:00,
2013-09-29 01:40:00,51.7,47.0,30.15,West,275,0.0,0.0,84,0.00,,---,0.00,VWS V14.01,2013-09-29 06:40:00,
2013-09-29 01:45:00,51.6,46.9,30.15,West,275,0.0,0.0,84,0.00,,---,0.00,VWS V14.01,2013-09-29 06:45:00,
2013-09-29 01:50:00,51.6,46.9,30.15,West,274,0.0,0.0,84,0.00,,---,0.00,VWS V14.01,2013-09-29 06:50:00,
2013-09-29 01:55:00,51.5,46.5,30.15,West,273,0.0,0.0,83,0.00,,---,0.00,VWS V14.01,2013-09-29 06:55:00,
2013-09-29 02:00:00,51.4,46.4,30.15,West,271,0.0,2.0,83,0.00,,---,0.00,VWS V14.01,2013-09-29 07:00:00,
2013-09-29 02:05:00,51.3,46.6,30.15,West,259,2.0,3.0,84,0.00,,---,0.00,VWS V14.01,2013-09-29 07:05:00,
2013-09-29 02:10:00,51.2,46.5,30.15,WSW,257,0.0,0.0,84,0.00,,---,0.00,VWS V14.01,2013-09-29 07:10:00,
2013-09-29 02:15:00,51.1,46.4,30.15,WSW,255,0.0,1.0,84,0.00,,---,0.00,VWS V14.01,2013-09-29 07:15:00,
2013-09-29 02:20:00,52.0,47.0,30.15,West,276,0.0,3.0,83,0.00,,---,0.00,VWS V14.01,2013-09-29 07:20:00,
2013-09-29 02:21:00,51.0,46.3,30.15,WSW,254,0.0,3.0,84,0.00,,---,0.00,VWS V14.01,2013-09-29 07:21:00,
2013-09-29 02:25:00,52.0,47.0,30.15,West,275,0.0,3.0,83,0.00,,---,0.00,VWS V14.01,2013-09-29 07:25:00,
2013-09-29 02:26:00,50.9,46.2,30.15,WSW,253,1.0,3.0,84,0.00,,---,0.00,VWS V14.01,2013-09-29 07:26:00,
2013-09-29 02:30:00,51.9,46.9,30.15,West,275,0.0,1.0,83,0.00,,---,0.00,VWS V14.01,2013-09-29 07:30:00,
2013-09-29 02:31:00,50.7,46.4,30.15,WSW,252,0.0,0.0,85,0.00,,---,0.00,VWS V14.01,2013-09-29 07:31:00,
2013-09-29 02:35:00,51.8,47.1,30.15,West,275,0.0,1.0,84,0.00,,---,0.00,VWS V14.01,2013-09-29 07:35:00,
2013-09-29 02:36:00,50.7,46.4,30.15,WSW,252,0.0,1.0,85,0.00,,---,0.00,VWS V14.01,2013-09-29 07:36:00,
2013-09-29 02:40:00,51.7,47.0,30.15,West,275,0.0,2.0,84,0.00,,---,0.00,VWS V14.01,2013-09-29 07:40:00,
2013-09-29 02:41:00,50.6,46.6,30.15,WSW,250,0.0,1.0,86,0.00,,---,0.00,VWS V14.01,2013-09-29 07:41:00,
2013-09-29 02:45:00,51.6,46.9,30.15,West,275,0.0,3.0,84,0.00,,---,0.00,VWS V14.01,2013-09-29 07:45:00,
2013-09-29 02:46:00,50.5,46.5,30.15,WSW,250,0.0,3.0,86,0.00,,---,0.00,VWS V14.01,2013-09-29 07:46:00,
2013-09-29 02:50:00,51.6,46.9,30.15,West,274,0.0,3.0,84,0.00,,---,0.00,VWS V14.01,2013-09-29 07:50:00,
2013-09-29 02:51:00,50.4,46.4,30.15,WSW,250,1.0,3.0,86,0.00,,---,0.00,VWS V14.01,2013-09-29 07:51:00,
2013-09-29 02:55:00,51.5,46.5,30.15,West,273,0.0,3.0,83,0.00,,---,0.00,VWS V14.01,2013-09-29 07:55:00,
2013-09-29 02:56:00,50.4,46.4,30.15,WSW,249,1.0,2.0,86,0.00,,---,0.00,VWS V14.01,2013-09-29 07:56:00,
2013-09-29 03:00:00,51.4,46.7,30.15,West,271,1.0,3.0,84,0.00,,---,0.00,VWS V14.01,2013-09-29 08:00:00,
2013-09-29 03:01:00,50.3,46.3,30.14,WSW,248,0.0,2.0,86,0.00,,---,0.00,VWS V14.01,2013-09-29 08:01:00,
2013-09-29 03:05:00,51.3,46.6,30.15,West,259,0.0,4.0,84,0.00,,---,0.00,VWS V14.01,2013-09-29 08:05:00,
2013-09-29 03:06:00,50.3,46.3,30.14,WSW,248,0.0,2.0,86,0.00,,---,0.00,VWS V14.01,2013-09-29 08:06:00,
2013-09-29 03:10:00,51.2,46.5,30.15,WSW,257,0.0,3.0,84,0.00,,---,0.00,VWS V14.01,2013-09-29 08:10:00,
2013-09-29 03:11:00,50.2,46.2,30.14,WSW,248,0.0,0.0,86,0.00,,---,0.00,VWS V14.01,2013-09-29 08:11:00,
2013-09-29 03:15:00,51.2,46.5,30.15,WSW,255,0.0,2.0,84,0.00,,---,0.00,VWS V14.01,2013-09-29 08:15:00,
2013-09-29 03:16:00,50.1,46.1,30.14,WSW,248,0.0,1.0,86,0.00,,---,0.00,VWS V14.01,2013-09-29 08:16:00,
2013-09-29 03:20:00,51.0,46.3,30.15,WSW,254,3.0,3.0,84,0.00,,---,0.00,VWS V14.01,2013-09-29 08:20:00,
2013-09-29 03:21:00,50.1,46.1,30.14,WSW,248,0.0,1.0,86,0.00,,---,0.00,VWS V14.01,2013-09-29 08:21:00,
2013-09-29 03:25:00,50.9,46.2,30.15,WSW,254,1.0,3.0,84,0.00,,---,0.00,VWS V14.01,2013-09-29 08:25:00,
2013-09-29 03:26:00,50.0,46.0,30.13,WSW,244,0.0,3.0,86,0.00,,---,0.00,VWS V14.01,2013-09-29 08:26:00,
2013-09-29 03:30:00,50.7,46.4,30.15,WSW,252,0.0,3.0,85,0.00,,---,0.00,VWS V14.01,2013-09-29 08:30:00,
2013-09-29 03:31:00,50.1,46.1,30.13,WSW,241,1.0,3.0,86,0.00,,---,0.00,VWS V14.01,2013-09-29 08:31:00,
2013-09-29 03:35:00,50.7,46.4,30.15,WSW,252,0.0,3.0,85,0.00,,---,0.00,VWS V14.01,2013-09-29 08:35:00,
2013-09-29 03:36:00,50.2,45.9,30.14,WSW,240,2.0,3.0,85,0.00,,---,0.00,VWS V14.01,2013-09-29 08:36:00,
2013-09-29 03:40:00,50.6,46.6,30.15,WSW,250,0.0,3.0,86,0.00,,---,0.00,VWS V14.01,2013-09-29 08:40:00,
2013-09-29 03:42:00,50.3,46.0,30.13,WSW,238,0.0,1.0,85,0.00,,---,0.00,VWS V14.01,2013-09-29 08:42:00,
2013-09-29 03:45:00,50.5,46.5,30.15,WSW,250,2.0,2.0,86,0.00,,---,0.00,VWS V14.01,2013-09-29 08:45:00,
2013-09-29 03:47:00,50.4,46.1,30.13,WSW,238,2.0,3.0,85,0.00,,---,0.00,VWS V14.01,2013-09-29 08:47:00,
2013-09-29 03:50:00,50.5,46.5,30.15,WSW,250,3.0,4.0,86,0.00,,---,0.00,VWS V14.01,2013-09-29 08:50:00,
2013-09-29 03:52:00,50.4,46.1,30.13,SW,233,0.0,5.0,85,0.00,,---,0.00,VWS V14.01,2013-09-29 08:52:00,
2013-09-29 03:55:00,50.4,46.4,30.15,WSW,249,0.0,3.0,86,0.00,,---,0.00,VWS V14.01,2013-09-29 08:55:00,
2013-09-29 03:57:00,50.4,46.1,30.13,SW,230,0.0,2.0,85,0.00,,---,0.00,VWS V14.01,2013-09-29 08:57:00,
2013-09-29 04:00:00,50.4,46.4,30.14,WSW,249,0.0,2.0,86,0.00,,---,0.00,VWS V14.01,2013-09-29 09:00:00,
2013-09-29 04:02:00,50.3,46.0,30.13,SW,229,0.0,2.0,85,0.00,,---,0.00,VWS V14.01,2013-09-29 09:02:00,
2013-09-29 04:05:00,50.3,46.3,30.15,WSW,248,0.0,3.0,86,0.00,,---,0.00,VWS V14.01,2013-09-29 09:05:00,
2013-09-29 04:07:00,50.1,45.5,30.14,SW,227,4.0,4.0,84,0.00,,---,0.00,VWS V14.01,2013-09-29 09:07:00,
2013-09-29 04:10:00,50.2,46.2,30.14,WSW,248,0.0,2.0,86,0.00,,---,0.00,VWS V14.01,2013-09-29 09:10:00,
2013-09-29 04:12:00,50.1,45.8,30.13,SW,227,0.0,3.0,85,0.00,,---,0.00,VWS V14.01,2013-09-29 09:12:00,
2013-09-29 04:15:00,50.2,46.2,30.14,WSW,248,0.0,3.0,86,0.00,,---,0.00,VWS V14.01,2013-09-29 09:15:00,
2013-09-29 04:17:00,49.9,45.6,30.14,SW,227,1.0,2.0,85,0.00,,---,0.00,VWS V14.01,2013-09-29 09:17:00,
2013-09-29 04:20:00,50.1,46.1,30.14,WSW,248,0.0,2.0,86,0.00,,---,0.00,VWS V14.01,2013-09-29 09:20:00,
2013-09-29 04:22:00,49.9,45.3,30.14,SW,222,1.0,3.0,84,0.00,,---,0.00,VWS V14.01,2013-09-29 09:22:00,
2013-09-29 04:25:00,50.0,46.0,30.14,WSW,248,0.0,2.0,86,0.00,,---,0.00,VWS V14.01,2013-09-29 09:25:00,
2013-09-29 04:27:00,50.0,45.4,30.14,SSW,213,0.0,6.0,84,0.00,,---,0.00,VWS V14.01,2013-09-29 09:27:00,
2013-09-29 04:30:00,50.1,46.1,30.14,WSW,241,0.0,3.0,86,0.00,,---,0.00,VWS V14.01,2013-09-29 09:30:00,
2013-09-29 04:32:00,50.1,45.2,30.14,SSW,196,5.0,5.0,83,0.00,,---,0.00,VWS V14.01,2013-09-29 09:32:00,
2013-09-29 04:35:00,50.2,45.9,30.14,WSW,240,0.0,3.0,85,0.00,,---,0.00,VWS V14.01,2013-09-29 09:35:00,
2013-09-29 04:37:00,50.3,45.3,30.14,South,190,1.0,5.0,83,0.00,,---,0.00,VWS V14.01,2013-09-29 09:37:00,
2013-09-29 04:40:00,50.3,46.0,30.13,WSW,238,1.0,3.0,85,0.00,,---,0.00,VWS V14.01,2013-09-29 09:40:00,
2013-09-29 04:42:00,50.3,45.0,30.14,SSW,195,1.0,5.0,82,0.00,,---,0.00,VWS V14.01,2013-09-29 09:42:00,
2013-09-29 04:45:00,50.4,46.1,30.13,WSW,238,0.0,4.0,85,0.00,,---,0.00,VWS V14.01,2013-09-29 09:45:00,
2013-09-29 04:47:00,50.4,45.1,30.14,South,190,1.0,5.0,82,0.00,,---,0.00,VWS V14.01,2013-09-29 09:47:00,
2013-09-29 04:50:00,50.4,46.1,30.13,SW,236,2.0,4.0,85,0.00,,---,0.00,VWS V14.01,2013-09-29 09:50:00,
2013-09-29 04:52:00,50.4,45.1,30.14,South,187,3.0,5.0,82,0.00,,---,0.00,VWS V14.01,2013-09-29 09:52:00,
2013-09-29 04:55:00,50.4,46.1,30.13,SW,230,0.0,5.0,85,0.00,,---,0.00,VWS V14.01,2013-09-29 09:55:00,
2013-09-29 04:57:00,50.3,45.0,30.14,South,169,0.0,9.0,82,0.00,,---,0.00,VWS V14.01,2013-09-29 09:57:00,
2013-09-29 05:00:00,50.3,46.0,30.14,SW,230,0.0,4.0,85,0.00,,---,0.00,VWS V14.01,2013-09-29 10:00:00,
2013-09-29 05:02:00,50.3,45.0,30.14,South,182,0.0,4.0,82,0.00,,---,0.00,VWS V14.01,2013-09-29 10:02:00,
2013-09-29 05:05:00,50.2,45.6,30.13,SW,228,0.0,4.0,84,0.00,,---,0.00,VWS V14.01,2013-09-29 10:05:00,
2013-09-29 05:08:00,50.2,44.9,30.14,South,181,3.0,3.0,82,0.00,,---,0.00,VWS V14.01,2013-09-29 10:08:00,
2013-09-29 05:10:00,50.1,45.5,30.14,SW,227,0.0,4.0,84,0.00,,---,0.00,VWS V14.01,2013-09-29 10:10:00,
2013-09-29 05:13:00,50.0,44.7,30.14,South,183,1.0,5.0,82,0.00,,---,0.00,VWS V14.01,2013-09-29 10:13:00,
2013-09-29 05:15:00,50.0,45.7,30.14,SW,227,0.0,3.0,85,0.00,,---,0.00,VWS V14.01,2013-09-29 10:15:00,
2013-09-29 05:18:00,49.8,44.5,30.14,South,182,5.0,5.0,82,0.00,,---,0.00,VWS V14.01,2013-09-29 10:18:00,
2013-09-29 05:20:00,49.9,45.6,30.14,SW,222,0.0,4.0,85,0.00,,---,0.00,VWS V14.01,2013-09-29 10:20:00,
2013-09-29 05:23:00,49.8,44.5,30.14,South,186,0.0,5.0,82,0.00,,---,0.00,VWS V14.01,2013-09-29 10:23:00,
2013-09-29 05:25:00,49.9,45.3,30.14,SW,218,2.0,6.0,84,0.00,,---,0.00,VWS V14.01,2013-09-29 10:25:00,
2013-09-29 05:28:00,49.7,44.8,30.14,SSW,195,0.0,6.0,83,0.00,,---,0.00,VWS V14.01,2013-09-29 10:28:00,
2013-09-29 05:30:00,50.1,45.5,30.14,SSW,206,2.0,6.0,84,0.00,,---,0.00,VWS V14.01,2013-09-29 10:30:00,
2013-09-29 05:33:00,49.7,44.8,30.14,South,191,0.0,3.0,83,0.00,,---,0.00,VWS V14.01,2013-09-29 10:33:00,
2013-09-29 05:35:00,50.3,45.3,30.14,South,189,5.0,6.0,83,0.00,,---,0.00,VWS V14.01,2013-09-29 10:35:00,
2013-09-29 05:38:00,49.6,44.3,30.14,South,191,1.0,3.0,82,0.00,,---,0.00,VWS V14.01,2013-09-29 10:38:00,
2013-09-29 05:40:00,50.3,45.3,30.13,SSW,193,0.0,6.0,83,0.00,,---,0.00,VWS V14.01,2013-09-29 10:40:00,
2013-09-29 05:43:00,49.5,44.2,30.14,SSW,192,0.0,4.0,82,0.00,,---,0.00,VWS V14.01,2013-09-29 10:43:00,
2013-09-29 05:45:00,50.4,45.1,30.14,South,186,3.0,8.0,82,0.00,,---,0.00,VWS V14.01,2013-09-29 10:45:00,
2013-09-29 05:48:00,49.5,44.2,30.14,SSW,192,3.0,3.0,82,0.00,,---,0.00,VWS V14.01,2013-09-29 10:48:00,
2013-09-29 05:50:00,50.4,45.1,30.14,South,190,2.0,5.0,82,0.00,,---,0.00,VWS V14.01,2013-09-29 10:50:00,
2013-09-29 05:53:00,49.5,44.2,30.14,SSW,193,0.0,5.0,82,0.00,,---,0.00,VWS V14.01,2013-09-29 10:53:00,
2013-09-29 05:55:00,50.4,45.1,30.14,South,184,4.0,5.0,82,0.00,,---,0.00,VWS V14.01,2013-09-29 10:55:00,
2013-09-29 05:58:00,49.5,44.2,30.14,SSW,193,0.0,3.0,82,0.00,,---,0.00,VWS V14.01,2013-09-29 10:58:00,
2013-09-29 06:00:00,50.3,45.0,30.14,South,181,1.0,9.0,82,0.00,,---,0.00,VWS V14.01,2013-09-29 11:00:00,
2013-09-29 06:03:00,49.4,44.1,30.14,SSW,195,0.0,4.0,82,0.00,,---,0.00,VWS V14.01,2013-09-29 11:03:00,
2013-09-29 06:05:00,50.3,45.0,30.14,South,180,2.0,4.0,82,0.00,,---,0.00,VWS V14.01,2013-09-29 11:05:00,
2013-09-29 06:08:00,49.3,44.0,30.15,SSW,196,1.0,3.0,82,0.00,,---,0.00,VWS V14.01,2013-09-29 11:08:00,
2013-09-29 06:10:00,50.2,44.9,30.14,South,183,0.0,4.0,82,0.00,,---,0.00,VWS V14.01,2013-09-29 11:10:00,
2013-09-29 06:13:00,49.3,44.0,30.15,South,186,1.0,4.0,82,0.00,,---,0.00,VWS V14.01,2013-09-29 11:13:00,
2013-09-29 06:15:00,49.9,44.6,30.14,South,183,1.0,5.0,82,0.00,,---,0.00,VWS V14.01,2013-09-29 11:15:00,
2013-09-29 06:18:00,49.2,44.0,30.15,South,188,1.0,4.0,82,0.00,,---,0.00,VWS V14.01,2013-09-29 11:18:00,
2013-09-29 06:20:00,49.8,44.5,30.14,South,185,1.0,5.0,82,0.00,,---,0.00,VWS V14.01,2013-09-29 11:20:00,
2013-09-29 06:23:00,49.1,43.8,30.15,South,188,0.0,3.0,82,0.00,,---,0.00,VWS V14.01,2013-09-29 11:23:00,
2013-09-29 06:25:00,49.8,44.8,30.14,South,186,0.0,6.0,83,0.00,,---,0.00,VWS V14.01,2013-09-29 11:25:00,
2013-09-29 06:29:00,49.0,44.1,30.15,South,185,3.0,4.0,83,0.00,,---,0.00,VWS V14.01,2013-09-29 11:29:00,
2013-09-29 06:30:00,49.7,44.4,30.14,South,188,1.0,6.0,82,0.00,,---,0.00,VWS V14.01,2013-09-29 11:30:00,
2013-09-29 06:34:00,48.9,44.0,30.15,South,187,0.0,6.0,83,0.00,,---,0.00,VWS V14.01,2013-09-29 11:34:00,
2013-09-29 06:35:00,49.7,44.4,30.14,South,191,0.0,3.0,82,0.00,,---,0.00,VWS V14.01,2013-09-29 11:35:00,
2013-09-29 06:39:00,48.7,43.8,30.15,South,186,0.0,4.0,83,0.00,,---,0.00,VWS V14.01,2013-09-29 11:39:00,
2013-09-29 06:40:00,49.6,44.7,30.14,SSW,192,0.0,3.0,83,0.00,,---,0.00,VWS V14.01,2013-09-29 11:40:00,
2013-09-29 06:44:00,48.5,43.6,30.15,South,186,0.0,4.0,83,0.00,,---,0.00,VWS V14.01,2013-09-29 11:44:00,
2013-09-29 06:45:00,49.5,44.6,30.14,SSW,192,0.0,4.0,83,0.00,,---,0.00,VWS V14.01,2013-09-29 11:45:00,
2013-09-29 06:49:00,48.4,43.5,30.15,South,185,0.0,4.0,83,0.00,,---,0.00,VWS V14.01,2013-09-29 11:49:00,
2013-09-29 06:50:00,49.5,44.2,30.14,SSW,192,0.0,4.0,82,0.00,,---,0.00,VWS V14.01,2013-09-29 11:50:00,
2013-09-29 06:54:00,48.3,43.7,30.15,South,185,1.0,4.0,84,0.00,,---,0.00,VWS V14.01,2013-09-29 11:54:00,
2013-09-29 06:55:00,49.5,44.2,30.14,SSW,193,3.0,5.0,82,0.00,,---,0.00,VWS V14.01,2013-09-29 11:55:00,
2013-09-29 06:59:00,48.2,43.6,30.15,South,184,2.0,4.0,84,0.00,,---,0.00,VWS V14.01,2013-09-29 11:59:00,
2013-09-29 07:00:00,49.4,44.1,30.14,SSW,193,1.0,4.0,82,0.00,,---,0.00,VWS V14.01,2013-09-29 12:00:00,
2013-09-29 07:04:00,48.2,43.3,30.15,South,185,0.0,4.0,83,0.00,,---,0.00,VWS V14.01,2013-09-29 12:04:00,
2013-09-29 07:05:00,49.4,44.1,30.14,SSW,195,1.0,4.0,82,0.00,,---,0.00,VWS V14.01,2013-09-29 12:05:00,
2013-09-29 07:09:00,48.2,43.3,30.15,South,185,0.0,3.0,83,0.00,,---,0.00,VWS V14.01,2013-09-29 12:09:00,
2013-09-29 07:10:00,49.3,44.0,30.15,SSW,194,2.0,4.0,82,0.00,,---,0.00,VWS V14.01,2013-09-29 12:10:00,
2013-09-29 07:14:00,48.2,43.3,30.16,South,185,0.0,3.0,83,0.00,,---,0.00,VWS V14.01,2013-09-29 12:14:00,
2013-09-29 07:15:00,49.3,44.0,30.15,South,188,1.0,4.0,82,0.00,,---,0.00,VWS V14.01,2013-09-29 12:15:00,
2013-09-29 07:19:00,48.2,43.3,30.16,South,184,4.0,4.0,83,0.00,,---,0.00,VWS V14.01,2013-09-29 12:19:00,
2013-09-29 07:20:00,49.2,44.0,30.15,South,188,0.0,4.0,82,0.00,,---,0.00,VWS V14.01,2013-09-29 12:20:00,
2013-09-29 07:24:00,48.1,43.2,30.15,South,186,4.0,6.0,83,0.00,,---,0.00,VWS V14.01,2013-09-29 12:24:00,
2013-09-29 07:25:00,49.1,43.8,30.15,South,188,1.0,4.0,82,0.00,,---,0.00,VWS V14.01,2013-09-29 12:25:00,
2013-09-29 07:29:00,48.1,43.2,30.15,South,185,0.0,3.0,83,0.00,,---,0.00,VWS V14.01,2013-09-29 12:29:00,
2013-09-29 07:30:00,49.0,44.1,30.15,South,186,0.0,4.0,83,0.00,,---,0.00,VWS V14.01,2013-09-29 12:30:00,
2013-09-29 07:34:00,48.1,43.2,30.15,SSW,198,0.0,6.0,83,0.00,,---,0.00,VWS V14.01,2013-09-29 12:34:00,
2013-09-29 07:35:00,48.8,43.9,30.15,South,187,2.0,6.0,83,0.00,,---,0.00,VWS V14.01,2013-09-29 12:35:00,
2013-09-29 07:39:00,48.2,43.3,30.15,SSW,192,0.0,6.0,83,0.00,,---,0.00,VWS V14.01,2013-09-29 12:39:00,
2013-09-29 07:40:00,48.6,43.7,30.15,South,186,0.0,4.0,83,0.00,,---,0.00,VWS V14.01,2013-09-29 12:40:00,
2013-09-29 07:44:00,48.1,43.2,30.15,SSW,200,0.0,6.0,83,0.00,,---,0.00,VWS V14.01,2013-09-29 12:44:00,
2013-09-29 07:45:00,48.5,43.6,30.15,South,187,0.0,4.0,83,0.00,,---,0.00,VWS V14.01,2013-09-29 12:45:00,
2013-09-29 07:50:00,48.2,43.3,30.15,SSW,197,0.0,7.0,83,0.00,,---,0.00,VWS V14.01,2013-09-29 12:50:00,
2013-09-29 07:55:00,48.3,43.4,30.15,SSW,192,3.0,6.0,83,0.00,,---,0.00,VWS V14.01,2013-09-29 12:55:00,
2013-09-29 08:00:00,48.4,43.2,30.15,SSW,195,0.0,6.0,82,0.00,,---,0.00,VWS V14.01,2013-09-29 13:00:00,
2013-09-29 08:05:00,48.6,43.4,30.15,South,188,0.0,6.0,82,0.00,,---,0.00,VWS V14.01,2013-09-29 13:05:00,
2013-09-29 08:10:00,48.7,43.5,30.15,South,189,0.0,6.0,82,0.00,,---,0.00,VWS V14.01,2013-09-29 13:10:00,
2013-09-29 08:15:00,48.8,43.6,30.14,South,190,1.0,6.0,82,0.00,,---,0.00,VWS V14.01,2013-09-29 13:15:00,
2013-09-29 08:20:00,49.0,43.4,30.14,South,190,2.0,6.0,81,0.00,,---,0.00,VWS V14.01,2013-09-29 13:20:00,
2013-09-29 08:25:00,49.2,44.0,30.14,SSW,192,2.0,5.0,82,0.00,,---,0.00,VWS V14.01,2013-09-29 13:25:00,
2013-09-29 08:30:00,49.5,43.9,30.14,SSW,200,0.0,6.0,81,0.00,,---,0.00,VWS V14.01,2013-09-29 13:30:00,
2013-09-29 08:35:00,49.8,44.2,30.15,SSW,194,0.0,5.0,81,0.00,,---,0.00,VWS V14.01,2013-09-29 13:35:00,
2013-09-29 08:40:00,50.1,44.5,30.15,SSW,199,0.0,5.0,81,0.00,,---,0.00,VWS V14.01,2013-09-29 13:40:00,
2013-09-29 08:45:00,50.5,44.9,30.15,SSW,213,0.0,7.0,81,0.00,,---,0.00,VWS V14.01,2013-09-29 13:45:00,
2013-09-29 08:50:00,51.0,45.1,30.15,SW,217,3.0,9.0,80,0.00,,---,0.00,VWS V14.01,2013-09-29 13:50:00,
2013-09-29 08:55:00,51.5,45.2,30.15,SW,229,0.0,5.0,79,0.00,,---,0.00,VWS V14.01,2013-09-29 13:55:00,
2013-09-29 09:00:00,52.0,45.7,30.15,SW,215,0.0,0.0,79,0.00,,---,0.00,VWS V14.01,2013-09-29 14:00:00,
2013-09-29 09:05:00,52.4,45.8,30.15,SSW,206,1.0,3.0,78,0.00,,---,0.00,VWS V14.01,2013-09-29 14:05:00,
2013-09-29 09:10:00,53.0,46.0,30.14,SSW,211,1.0,3.0,77,0.00,,---,0.00,VWS V14.01,2013-09-29 14:10:00,
2013-09-29 09:15:00,53.6,46.2,30.14,SSW,211,4.0,4.0,76,0.00,,---,0.00,VWS V14.01,2013-09-29 14:15:00,
2013-09-29 09:20:00,54.1,46.4,30.14,SW,219,0.0,1.0,75,0.00,,---,0.00,VWS V14.01,2013-09-29 14:20:00,
2013-09-29 09:25:00,49.2,44.0,30.14,SSW,192,2.0,5.0,82,0.00,,---,0.00,VWS V14.01,2013-09-29 14:25:00,
2013-09-29 09:26:00,54.7,46.2,30.15,SSW,199,3.0,9.0,73,0.00,,---,0.00,VWS V14.01,2013-09-29 14:26:00,
2013-09-29 09:30:00,49.5,43.9,30.14,SSW,200,0.0,6.0,81,0.00,,---,0.00,VWS V14.01,2013-09-29 14:30:00,
2013-09-29 09:31:00,55.2,46.3,30.15,West,267,4.0,10.0,72,0.00,,---,0.00,VWS V14.01,2013-09-29 14:31:00,
2013-09-29 09:35:00,49.8,44.2,30.15,SSW,194,0.0,5.0,81,0.00,,---,0.00,VWS V14.01,2013-09-29 14:35:00,
2013-09-29 09:36:00,55.7,46.1,30.15,SW,214,3.0,6.0,70,0.00,,---,0.00,VWS V14.01,2013-09-29 14:36:00,
2013-09-29 09:40:00,50.1,44.5,30.15,SSW,199,0.0,5.0,81,0.00,,---,0.00,VWS V14.01,2013-09-29 14:40:00,
2013-09-29 09:41:00,56.1,46.5,30.15,SW,215,3.0,12.0,70,0.00,,---,0.00,VWS V14.01,2013-09-29 14:41:00,
2013-09-29 09:45:00,50.5,44.9,30.15,SSW,213,0.0,7.0,81,0.00,,---,0.00,VWS V14.01,2013-09-29 14:45:00,
2013-09-29 09:46:00,56.6,46.9,30.15,WSW,250,0.0,3.0,70,0.00,,---,0.00,VWS V14.01,2013-09-29 14:46:00,
2013-09-29 09:50:00,51.0,45.1,30.15,SW,217,3.0,9.0,80,0.00,,---,0.00,VWS V14.01,2013-09-29 14:50:00,
2013-09-29 09:51:00,57.0,47.3,30.14,SSW,207,5.0,7.0,70,0.00,,---,0.00,VWS V14.01,2013-09-29 14:51:00,
2013-09-29 09:55:00,51.5,45.2,30.15,SW,229,0.0,5.0,79,0.00,,---,0.00,VWS V14.01,2013-09-29 14:55:00,
2013-09-29 09:56:00,57.4,47.7,30.14,WSW,240,1.0,3.0,70,0.00,,---,0.00,VWS V14.01,2013-09-29 14:56:00,
2013-09-29 10:00:00,52.0,45.7,30.15,SW,215,0.0,8.0,79,0.00,,---,0.00,VWS V14.01,2013-09-29 15:00:00,
2013-09-29 10:01:00,58.0,47.9,30.14,SSW,203,2.0,10.0,69,0.00,,---,0.00,VWS V14.01,2013-09-29 15:01:00,
2013-09-29 10:05:00,52.4,45.8,30.15,SSW,200,0.0,7.0,78,0.00,,---,0.00,VWS V14.01,2013-09-29 15:05:00,
2013-09-29 10:06:00,58.5,48.0,30.14,WSW,237,0.0,4.0,68,0.00,,---,0.00,VWS V14.01,2013-09-29 15:06:00,
2013-09-29 10:10:00,53.0,46.0,30.15,SSW,204,1.0,7.0,77,0.00,,---,0.00,VWS V14.01,2013-09-29 15:10:00,
2013-09-29 10:11:00,59.1,49.0,30.15,WSW,252,2.0,6.0,69,0.00,,---,0.00,VWS V14.01,2013-09-29 15:11:00,
2013-09-29 10:15:00,53.5,46.1,30.14,SSW,211,1.0,6.0,76,0.00,,---,0.00,VWS V14.01,2013-09-29 15:15:00,
2013-09-29 10:16:00,59.6,48.2,30.15,SW,229,1.0,3.0,66,0.00,,---,0.00,VWS V14.01,2013-09-29 15:16:00,
2013-09-29 10:20:00,54.0,46.3,30.14,SW,219,1.0,5.0,75,0.00,,---,0.00,VWS V14.01,2013-09-29 15:20:00,
2013-09-29 10:21:00,60.2,48.8,30.15,South,175,1.0,8.0,66,0.00,,---,0.00,VWS V14.01,2013-09-29 15:21:00,
2013-09-29 10:25:00,54.6,46.1,30.14,WSW,246,1.0,6.0,73,0.00,,---,0.00,VWS V14.01,2013-09-29 15:25:00,
2013-09-29 10:27:00,60.7,48.9,30.14,West,259,2.0,9.0,65,0.00,,---,0.00,VWS V14.01,2013-09-29 15:27:00,
2013-09-29 10:30:00,55.1,46.2,30.15,SW,219,1.0,11.0,72,0.00,,---,0.00,VWS V14.01,2013-09-29 15:30:00,
2013-09-29 10:32:00,61.3,49.0,30.14,South,190,3.0,6.0,64,0.00,,---,0.00,VWS V14.01,2013-09-29 15:32:00,
2013-09-29 10:35:00,55.6,46.4,30.15,SW,217,6.0,10.0,71,0.00,,---,0.00,VWS V14.01,2013-09-29 15:35:00,
2013-09-29 10:37:00,61.8,49.1,30.14,West,261,1.0,10.0,63,0.00,,---,0.00,VWS V14.01,2013-09-29 15:37:00,
2013-09-29 10:40:00,56.0,46.4,30.15,WSW,255,3.0,12.0,70,0.00,,---,0.00,VWS V14.01,2013-09-29 15:40:00,
2013-09-29 10:42:00,62.4,49.7,30.14,SSW,207,2.0,5.0,63,0.00,,---,0.00,VWS V14.01,2013-09-29 15:42:00,
2013-09-29 10:45:00,56.5,46.8,30.15,WSW,248,0.0,12.0,70,0.00,,---,0.00,VWS V14.01,2013-09-29 15:45:00,
2013-09-29 10:47:00,63.0,49.8,30.14,South,186,0.0,13.0,62,0.00,,---,0.00,VWS V14.01,2013-09-29 15:47:00,
2013-09-29 10:50:00,56.9,46.8,30.14,SW,219,2.0,5.0,69,0.00,,---,0.00,VWS V14.01,2013-09-29 15:50:00,
2013-09-29 10:52:00,63.7,49.1,30.14,SSW,203,4.0,7.0,59,0.00,,---,0.00,VWS V14.01,2013-09-29 15:52:00,
2013-09-29 10:55:00,57.3,47.2,30.14,WSW,242,0.0,12.0,69,0.00,,---,0.00,VWS V14.01,2013-09-29 15:55:00,
2013-09-29 10:57:00,64.4,48.8,30.14,South,176,0.0,11.0,57,0.00,,---,0.00,VWS V14.01,2013-09-29 15:57:00,
2013-09-29 11:00:00,57.9,47.8,30.14,South,188,2.0,7.0,69,0.00,,---,0.00,VWS V14.01,2013-09-29 16:00:00,
2013-09-29 11:02:00,65.0,49.9,30.13,SW,222,1.0,10.0,58,0.00,,---,0.00,VWS V14.01,2013-09-29 16:02:00,
2013-09-29 11:05:00,58.4,47.9,30.14,WSW,239,0.0,10.0,68,0.00,,---,0.00,VWS V14.01,2013-09-29 16:05:00,
2013-09-29 11:07:00,65.7,49.1,30.13,WSW,250,3.0,7.0,55,0.00,,---,0.00,VWS V14.01,2013-09-29 16:07:00,
2013-09-29 11:10:00,58.9,48.4,30.15,WSW,250,0.0,6.0,68,0.00,,---,0.00,VWS V14.01,2013-09-29 16:10:00,
2013-09-29 11:12:00,66.2,49.1,30.13,SSW,213,4.0,9.0,54,0.00,,---,0.00,VWS V14.01,2013-09-29 16:12:00,
2013-09-29 11:15:00,59.5,48.2,30.15,SW,234,0.0,7.0,66,0.00,,---,0.00,VWS V14.01,2013-09-29 16:15:00,
2013-09-29 11:17:00,66.7,49.0,30.13,WNW,297,4.0,13.0,53,0.00,,---,0.00,VWS V14.01,2013-09-29 16:17:00,
2013-09-29 11:20:00,60.0,49.0,30.15,WSW,238,0.0,8.0,67,0.00,,---,0.00,VWS V14.01,2013-09-29 16:20:00,
2013-09-29 11:22:00,67.2,49.0,30.13,SW,229,2.0,5.0,52,0.00,,---,0.00,VWS V14.01,2013-09-29 16:22:00,
2013-09-29 11:25:00,60.5,49.1,30.14,WSW,250,3.0,10.0,66,0.00,,---,0.00,VWS V14.01,2013-09-29 16:25:00,
2013-09-29 11:27:00,67.7,49.5,30.12,South,174,2.0,7.0,52,0.00,,---,0.00,VWS V14.01,2013-09-29 16:27:00,
2013-09-29 11:30:00,61.1,48.8,30.14,South,184,1.0,9.0,64,0.00,,---,0.00,VWS V14.01,2013-09-29 16:30:00,
2013-09-29 11:33:00,68.4,48.5,30.12,SW,229,0.0,11.0,49,0.00,,---,0.00,VWS V14.01,2013-09-29 16:33:00,
2013-09-29 11:35:00,61.6,48.5,30.14,WSW,250,3.0,11.0,62,0.00,,---,0.00,VWS V14.01,2013-09-29 16:35:00,
2013-09-29 11:38:00,68.8,49.4,30.12,WSW,253,0.0,11.0,50,0.00,,---,0.00,VWS V14.01,2013-09-29 16:38:00,
2013-09-29 11:40:00,62.2,49.5,30.14,South,188,2.0,10.0,63,0.00,,---,0.00,VWS V14.01,2013-09-29 16:40:00,
2013-09-29 11:43:00,69.2,49.2,30.12,SSW,198,0.0,11.0,49,0.00,,---,0.00,VWS V14.01,2013-09-29 16:43:00,
2013-09-29 11:45:00,62.8,49.2,30.14,SW,219,5.0,10.0,61,0.00,,---,0.00,VWS V14.01,2013-09-29 16:45:00,
2013-09-29 11:48:00,69.7,49.2,30.12,West,269,2.0,11.0,48,0.00,,---,0.00,VWS V14.01,2013-09-29 16:48:00,
2013-09-29 11:50:00,63.4,49.3,30.14,SSW,213,2.0,13.0,60,0.00,,---,0.00,VWS V14.01,2013-09-29 16:50:00,
2013-09-29 11:53:00,69.9,48.8,30.11,SW,229,5.0,11.0,47,0.00,,---,0.00,VWS V14.01,2013-09-29 16:53:00,
2013-09-29 11:55:00,64.1,49.5,30.14,SSW,208,1.0,7.0,59,0.00,,---,0.00,VWS V14.01,2013-09-29 16:55:00,
2013-09-29 11:58:00,70.4,48.7,30.11,WSW,242,3.0,8.0,46,0.00,,---,0.00,VWS V14.01,2013-09-29 16:58:00,
2013-09-29 12:00:00,64.8,49.7,30.14,South,190,5.0,11.0,58,0.00,,---,0.00,VWS V14.01,2013-09-29 17:00:00,
2013-09-29 12:03:00,71.0,48.6,30.11,WSW,244,3.0,10.0,45,0.00,,---,0.00,VWS V14.01,2013-09-29 17:03:00,
2013-09-29 12:05:00,65.4,49.8,30.13,SW,221,2.0,10.0,57,0.00,,---,0.00,VWS V14.01,2013-09-29 17:05:00,
2013-09-29 12:08:00,71.2,48.8,30.10,WSW,250,1.0,9.0,45,0.00,,---,0.00,VWS V14.01,2013-09-29 17:08:00,
2013-09-29 12:10:00,65.9,48.8,30.13,SW,227,4.0,11.0,54,0.00,,---,0.00,VWS V14.01,2013-09-29 17:10:00,
2013-09-29 12:13:00,71.5,49.1,30.10,SSW,196,6.0,11.0,45,0.00,,---,0.00,VWS V14.01,2013-09-29 17:13:00,
2013-09-29 12:15:00,66.4,49.8,30.13,SSW,207,6.0,13.0,55,0.00,,---,0.00,VWS V14.01,2013-09-29 17:15:00,
2013-09-29 12:18:00,71.9,48.8,30.10,SW,220,1.0,11.0,44,0.00,,---,0.00,VWS V14.01,2013-09-29 17:18:00,
2013-09-29 12:20:00,66.9,49.7,30.13,SW,219,1.0,13.0,54,0.00,,---,0.00,VWS V14.01,2013-09-29 17:20:00,
2013-09-29 12:23:00,72.1,49.0,30.11,SSE,148,8.0,17.0,44,0.00,,---,0.00,VWS V14.01,2013-09-29 17:23:00,
2013-09-29 12:25:00,67.4,49.2,30.13,WSW,250,1.0,16.0,52,0.00,,---,0.00,VWS V14.01,2013-09-29 17:25:00,
2013-09-29 12:28:00,72.4,49.3,30.11,WSW,240,3.0,11.0,44,0.00,,---,0.00,VWS V14.01,2013-09-29 17:28:00,
2013-09-29 12:30:00,68.1,49.8,30.13,SSW,207,2.0,11.0,52,0.00,,---,0.00,VWS V14.01,2013-09-29 17:30:00,
2013-09-29 12:33:00,72.8,49.0,30.10,SSW,210,3.0,13.0,43,0.00,,---,0.00,VWS V14.01,2013-09-29 17:33:00,
2013-09-29 12:35:00,68.6,48.2,30.12,WNW,286,7.0,18.0,48,0.00,,---,0.00,VWS V14.01,2013-09-29 17:35:00,
2013-09-29 12:39:00,73.3,49.5,30.10,SSE,165,5.0,11.0,43,0.00,,---,0.00,VWS V14.01,2013-09-29 17:39:00,
2013-09-29 12:40:00,68.9,49.0,30.12,West,260,1.0,11.0,49,0.00,,---,0.00,VWS V14.01,2013-09-29 17:40:00,
2013-09-29 12:44:00,73.7,47.9,30.09,South,173,3.0,12.0,40,0.00,,---,0.00,VWS V14.01,2013-09-29 17:44:00,
2013-09-29 12:45:00,69.5,49.5,30.12,South,169,5.0,11.0,49,0.00,,---,0.00,VWS V14.01,2013-09-29 17:45:00,
2013-09-29 12:49:00,74.2,47.7,30.09,SSW,208,4.0,16.0,39,0.00,,---,0.00,VWS V14.01,2013-09-29 17:49:00,
2013-09-29 12:50:00,69.8,48.7,30.11,SSW,213,4.0,11.0,47,0.00,,---,0.00,VWS V14.01,2013-09-29 17:50:00,
2013-09-29 12:54:00,74.4,47.2,30.09,South,184,6.0,15.0,38,0.00,,---,0.00,VWS V14.01,2013-09-29 17:54:00,
2013-09-29 12:55:00,70.0,48.3,30.11,SSW,210,1.0,11.0,46,0.00,,---,0.00,VWS V14.01,2013-09-29 17:55:00,
2013-09-29 12:59:00,74.4,46.5,30.08,WSW,252,5.0,15.0,37,0.00,,---,0.00,VWS V14.01,2013-09-29 17:59:00,
2013-09-29 13:00:00,70.7,48.9,30.11,WSW,242,3.0,11.0,46,0.00,,---,0.00,VWS V14.01,2013-09-29 18:00:00,
2013-09-29 13:04:00,74.6,47.3,30.08,SSW,211,3.0,10.0,38,0.00,,---,0.00,VWS V14.01,2013-09-29 18:04:00,
2013-09-29 13:05:00,71.0,47.4,30.11,South,184,7.0,10.0,43,0.00,,---,0.00,VWS V14.01,2013-09-29 18:05:00,
2013-09-29 13:09:00,74.9,46.9,30.08,SSW,207,6.0,20.0,37,0.00,,---,0.00,VWS V14.01,2013-09-29 18:09:00,
2013-09-29 13:10:00,71.3,48.9,30.11,SSW,192,7.0,10.0,45,0.00,,---,0.00,VWS V14.01,2013-09-29 18:10:00,
2013-09-29 13:14:00,75.0,47.0,30.08,West,274,6.0,17.0,37,0.00,,---,0.00,VWS V14.01,2013-09-29 18:14:00,
2013-09-29 13:15:00,71.6,49.2,30.10,SSW,205,9.0,11.0,45,0.00,,---,0.00,VWS V14.01,2013-09-29 18:15:00,
2013-09-29 13:19:00,75.1,47.1,30.08,SW,229,0.0,14.0,37,0.00,,---,0.00,VWS V14.01,2013-09-29 18:19:00,
2013-09-29 13:20:00,72.1,48.4,30.11,SW,220,9.0,11.0,43,0.00,,---,0.00,VWS V14.01,2013-09-29 18:20:00,
2013-09-29 13:24:00,75.1,47.1,30.07,West,261,7.0,16.0,37,0.00,,---,0.00,VWS V14.01,2013-09-29 18:24:00,
2013-09-29 13:25:00,72.2,48.5,30.10,SSW,192,3.0,17.0,43,0.00,,---,0.00,VWS V14.01,2013-09-29 18:25:00,
2013-09-29 13:29:00,75.3,47.3,30.07,SW,226,2.0,10.0,37,0.00,,---,0.00,VWS V14.01,2013-09-29 18:29:00,
2013-09-29 13:30:00,72.6,49.5,30.10,SSW,213,9.0,11.0,44,0.00,,---,0.00,VWS V14.01,2013-09-29 18:30:00,
2013-09-29 13:34:00,75.8,47.0,30.06,WSW,241,5.0,17.0,36,0.00,,---,0.00,VWS V14.01,2013-09-29 18:34:00,
2013-09-29 13:35:00,73.0,48.6,30.10,WSW,238,4.0,13.0,42,0.00,,---,0.00,VWS V14.01,2013-09-29 18:35:00,
2013-09-29 13:39:00,76.0,46.4,30.06,SSW,195,13.0,15.0,35,0.00,,---,0.00,VWS V14.01,2013-09-29 18:39:00,
2013-09-29 13:40:00,73.4,48.3,30.10,WSW,252,5.0,12.0,41,0.00,,---,0.00,VWS V14.01,2013-09-29 18:40:00,
2013-09-29 13:45:00,75.9,46.3,30.06,SSW,199,7.0,15.0,35,0.00,,---,0.00,VWS V14.01,2013-09-29 18:45:00,
2013-09-29 13:50:00,76.2,46.6,30.06,SE,134,4.0,15.0,35,0.00,,---,0.00,VWS V14.01,2013-09-29 18:50:00,
2013-09-29 13:55:00,76.3,47.4,30.06,WSW,240,3.0,16.0,36,0.00,,---,0.00,VWS V14.01,2013-09-29 18:55:00,
2013-09-29 14:00:00,76.5,46.1,30.05,South,171,2.0,18.0,34,0.00,,---,0.00,VWS V14.01,2013-09-29 19:00:00,
2013-09-29 14:05:00,76.7,46.2,30.05,WSW,238,2.0,14.0,34,0.00,,---,0.00,VWS V14.01,2013-09-29 19:05:00,
2013-09-29 14:10:00,76.8,47.8,30.04,SW,217,2.0,15.0,36,0.00,,---,0.00,VWS V14.01,2013-09-29 19:10:00,
2013-09-29 14:15:00,76.8,48.6,30.04,SW,234,6.0,15.0,37,0.00,,---,0.00,VWS V14.01,2013-09-29 19:15:00,
2013-09-29 14:20:00,76.7,47.8,30.04,SSW,211,5.0,11.0,36,0.00,,---,0.00,VWS V14.01,2013-09-29 19:20:00,
2013-09-29 14:25:00,77.0,47.3,30.03,South,185,9.0,9.0,35,0.00,,---,0.00,VWS V14.01,2013-09-29 19:25:00,
2013-09-29 14:30:00,77.3,46.8,30.03,SSW,200,1.0,1.0,34,0.00,,---,0.00,VWS V14.01,2013-09-29 19:30:00,
2013-09-29 14:35:00,77.4,46.9,30.02,SSW,213,13.0,13.0,34,0.00,,---,0.00,VWS V14.01,2013-09-29 19:35:00,
2013-09-29 14:40:00,77.2,46.7,30.02,SSW,200,5.0,11.0,34,0.00,,---,0.00,VWS V14.01,2013-09-29 19:40:00,
2013-09-29 14:45:00,77.3,46.8,30.02,SSE,150,7.0,16.0,34,0.00,,---,0.00,VWS V14.01,2013-09-29 19:45:00,
2013-09-29 14:48:00,77.3,46.8,30.01,SSW,195,3.0,16.0,34,0.00,,---,0.00,VWS V14.01,2013-09-29 19:48:00,
2013-09-29 14:50:00,76.2,46.6,30.06,South,191,3.0,15.0,35,0.00,,---,0.00,VWS V14.01,2013-09-29 19:50:00,
2013-09-29 14:53:00,77.5,47.7,30.01,WSW,248,11.0,13.0,35,0.00,,---,0.00,VWS V14.01,2013-09-29 19:53:00,
2013-09-29 14:55:00,76.3,47.4,30.06,WSW,237,4.0,16.0,36,0.00,,---,0.00,VWS V14.01,2013-09-29 19:55:00,
2013-09-29 14:58:00,77.6,46.2,30.01,SSW,197,15.0,16.0,33,0.00,,---,0.00,VWS V14.01,2013-09-29 19:58:00,
2013-09-29 15:00:00,76.5,46.1,30.05,SSW,193,3.0,18.0,34,0.00,,---,0.00,VWS V14.01,2013-09-29 20:00:00,
2013-09-29 15:03:00,77.4,46.9,30.01,SW,225,4.0,13.0,34,0.00,,---,0.00,VWS V14.01,2013-09-29 20:03:00,
2013-09-29 15:05:00,76.7,46.2,30.05,WSW,238,2.0,14.0,34,0.00,,---,0.00,VWS V14.01,2013-09-29 20:05:00,
2013-09-29 15:08:00,77.8,47.2,30.01,WSW,245,4.0,17.0,34,0.00,,---,0.00,VWS V14.01,2013-09-29 20:08:00,
2013-09-29 15:10:00,76.8,47.8,30.04,SW,217,2.0,15.0,36,0.00,,---,0.00,VWS V14.01,2013-09-29 20:10:00,
2013-09-29 15:13:00,77.9,47.3,30.01,WSW,250,4.0,13.0,34,0.00,,---,0.00,VWS V14.01,2013-09-29 20:13:00,
2013-09-29 15:15:00,76.8,48.6,30.04,SW,234,6.0,15.0,37,0.00,,---,0.00,VWS V14.01,2013-09-29 20:15:00,
2013-09-29 15:18:00,78.2,47.6,30.01,West,263,4.0,15.0,34,0.00,,---,0.00,VWS V14.01,2013-09-29 20:18:00,
2013-09-29 15:20:00,76.7,47.8,30.04,SSW,211,5.0,11.0,36,0.00,,---,0.00,VWS V14.01,2013-09-29 20:20:00,
2013-09-29 15:23:00,78.3,47.7,30.01,South,171,7.0,10.0,34,0.00,,---,0.00,VWS V14.01,2013-09-29 20:23:00,
2013-09-29 15:25:00,77.0,47.3,30.04,South,185,9.0,13.0,35,0.00,,---,0.00,VWS V14.01,2013-09-29 20:25:00,
2013-09-29 15:28:00,77.8,46.4,30.01,SW,229,0.0,19.0,33,0.00,,---,0.00,VWS V14.01,2013-09-29 20:28:00,
2013-09-29 15:30:00,77.3,46.8,30.03,SSW,200,1.0,19.0,34,0.00,,---,0.00,VWS V14.01,2013-09-29 20:30:00,
2013-09-29 15:33:00,77.7,47.9,30.01,SSW,205,11.0,16.0,35,0.00,,---,0.00,VWS V14.01,2013-09-29 20:33:00,
2013-09-29 15:35:00,77.4,46.9,30.02,SSW,202,6.0,16.0,34,0.00,,---,0.00,VWS V14.01,2013-09-29 20:35:00,
2013-09-29 15:38:00,77.7,47.9,30.01,WSW,238,4.0,12.0,35,0.00,,---,0.00,VWS V14.01,2013-09-29 20:38:00,
2013-09-29 15:40:00,77.2,46.7,30.02,SSW,192,7.0,16.0,34,0.00,,---,0.00,VWS V14.01,2013-09-29 20:40:00,
2013-09-29 15:44:00,78.1,48.2,30.00,SSW,198,4.0,15.0,35,0.00,,---,0.00,VWS V14.01,2013-09-29 20:44:00,
2013-09-29 15:45:00,77.3,46.8,30.02,WSW,238,5.0,14.0,34,0.00,,---,0.00,VWS V14.01,2013-09-29 20:45:00,
2013-09-29 15:49:00,78.1,48.2,30.00,WSW,249,8.0,18.0,35,0.00,,---,0.00,VWS V14.01,2013-09-29 20:49:00,
2013-09-29 15:50:00,77.3,48.3,30.01,SSW,198,10.0,16.0,36,0.00,,---,0.00,VWS V14.01,2013-09-29 20:50:00,
2013-09-29 15:54:00,78.1,47.5,30.00,South,183,3.0,15.0,34,0.00,,---,0.00,VWS V14.01,2013-09-29 20:54:00,
2013-09-29 15:55:00,77.6,47.0,30.01,West,263,5.0,14.0,34,0.00,,---,0.00,VWS V14.01,2013-09-29 20:55:00,
2013-09-29 15:59:00,77.9,47.3,30.00,SW,232,9.0,16.0,34,0.00,,---,0.00,VWS V14.01,2013-09-29 20:59:00,
2013-09-29 16:00:00,77.4,46.9,30.01,SSW,211,7.0,17.0,34,0.00,,---,0.00,VWS V14.01,2013-09-29 21:00:00,
2013-09-29 16:04:00,77.7,47.9,30.00,SW,236,3.0,16.0,35,0.00,,---,0.00,VWS V14.01,2013-09-29 21:04:00,
2013-09-29 16:05:00,77.5,47.7,30.01,WSW,248,5.0,13.0,35,0.00,,---,0.00,VWS V14.01,2013-09-29 21:05:00,
2013-09-29 16:09:00,77.8,47.2,30.00,SSW,198,3.0,17.0,34,0.00,,---,0.00,VWS V14.01,2013-09-29 21:09:00,
2013-09-29 16:10:00,77.9,48.1,30.01,WSW,246,2.0,17.0,35,0.00,,---,0.00,VWS V14.01,2013-09-29 21:10:00,
2013-09-29 16:14:00,78.3,47.7,29.99,WSW,244,3.0,13.0,34,0.00,,---,0.00,VWS V14.01,2013-09-29 21:14:00,
2013-09-29 16:15:00,78.0,47.4,30.01,WSW,254,3.0,13.0,34,0.00,,---,0.00,VWS V14.01,2013-09-29 21:15:00,
2013-09-29 16:19:00,78.3,47.7,30.00,South,171,12.0,17.0,34,0.00,,---,0.00,VWS V14.01,2013-09-29 21:19:00,
2013-09-29 16:20:00,78.4,47.7,30.01,WSW,248,7.0,15.0,34,0.00,,---,0.00,VWS V14.01,2013-09-29 21:20:00,
2013-09-29 16:24:00,78.0,47.4,30.00,South,172,5.0,14.0,34,0.00,,---,0.00,VWS V14.01,2013-09-29 21:24:00,
2013-09-29 16:25:00,78.2,46.8,30.01,SSW,207,7.0,12.0,33,0.00,,---,0.00,VWS V14.01,2013-09-29 21:25:00,
2013-09-29 16:29:00,77.7,47.1,30.00,SW,216,7.0,11.0,34,0.00,,---,0.00,VWS V14.01,2013-09-29 21:29:00,
2013-09-29 16:30:00,77.7,47.9,30.01,South,186,16.0,19.0,35,0.00,,---,0.00,VWS V14.01,2013-09-29 21:30:00,
2013-09-29 16:34:00,77.5,46.2,30.00,South,171,7.0,11.0,33,0.00,,---,0.00,VWS V14.01,2013-09-29 21:34:00,
2013-09-29 16:35:00,77.7,47.1,30.01,SW,227,6.0,18.0,34,0.00,,---,0.00,VWS V14.01,2013-09-29 21:35:00,
2013-09-29 16:39:00,77.2,46.7,30.00,WSW,257,7.0,17.0,34,0.00,,---,0.00,VWS V14.01,2013-09-29 21:39:00,
2013-09-29 16:40:00,77.8,48.0,30.00,WSW,250,8.0,12.0,35,0.00,,---,0.00,VWS V14.01,2013-09-29 21:40:00,
2013-09-29 16:44:00,76.9,45.6,29.99,South,190,9.0,16.0,33,0.00,,---,0.00,VWS V14.01,2013-09-29 21:44:00,
2013-09-29 16:45:00,78.1,47.5,30.00,SW,221,6.0,15.0,34,0.00,,---,0.00,VWS V14.01,2013-09-29 21:45:00,
2013-09-29 16:50:00,77.0,46.5,29.99,SSW,203,9.0,19.0,34,0.00,,---,0.00,VWS V14.01,2013-09-29 21:50:00,
2013-09-29 16:55:00,77.3,46.0,29.98,West,271,6.0,13.0,33,0.00,,---,0.00,VWS V14.01,2013-09-29 21:55:00,
2013-09-29 17:00:00,77.4,46.9,29.98,SE,143,8.0,16.0,34,0.00,,---,0.00,VWS V14.01,2013-09-29 22:00:00,
2013-09-29 17:05:00,77.4,46.1,29.98,SW,219,1.0,19.0,33,0.00,,---,0.00,VWS V14.01,2013-09-29 22:05:00,
2013-09-29 17:10:00,77.5,46.2,29.98,SW,233,7.0,21.0,33,0.00,,---,0.00,VWS V14.01,2013-09-29 22:10:00,
2013-09-29 17:15:00,77.4,46.1,29.98,SSW,209,3.0,14.0,33,0.00,,---,0.00,VWS V14.01,2013-09-29 22:15:00,
2013-09-29 17:20:00,77.3,46.0,29.98,South,185,14.0,14.0,33,0.00,,---,0.00,VWS V14.01,2013-09-29 22:20:00,
2013-09-29 17:25:00,77.1,47.4,29.97,South,188,10.0,11.0,35,0.00,,---,0.00,VWS V14.01,2013-09-29 22:25:00,
2013-09-29 17:30:00,77.1,46.6,29.97,SE,144,10.0,10.0,34,0.00,,---,0.00,VWS V14.01,2013-09-29 22:30:00,
2013-09-29 17:35:00,76.6,46.2,29.97,South,170,6.0,9.0,34,0.00,,---,0.00,VWS V14.01,2013-09-29 22:35:00,
2013-09-29 17:40:00,76.1,46.5,29.98,SW,234,9.0,12.0,35,0.00,,---,0.00,VWS V14.01,2013-09-29 22:40:00,
2013-09-29 17:45:00,75.6,46.8,29.97,SSE,167,3.0,5.0,36,0.00,,---,0.00,VWS V14.01,2013-09-29 22:45:00,
2013-09-29 17:50:00,75.3,46.5,29.98,SSW,202,6.0,12.0,36,0.00,,---,0.00,VWS V14.01,2013-09-29 22:50:00,
2013-09-29 17:55:00,77.3,46.0,29.98,SSW,200,4.0,13.0,33,0.00,,---,0.00,VWS V14.01,2013-09-29 22:55:00,
2013-09-29 17:56:00,75.0,47.0,29.97,SSW,195,3.0,8.0,37,0.00,,---,0.00,VWS V14.01,2013-09-29 22:56:00,
2013-09-29 18:00:00,77.4,46.9,29.98,SSW,205,15.0,16.0,34,0.00,,---,0.00,VWS V14.01,2013-09-29 23:00:00,
2013-09-29 18:01:00,74.8,46.8,29.97,SSW,199,10.0,12.0,37,0.00,,---,0.00,VWS V14.01,2013-09-29 23:01:00,
2013-09-29 18:05:00,77.4,46.9,29.98,SW,221,4.0,19.0,34,0.00,,---,0.00,VWS V14.01,2013-09-29 23:05:00,
2013-09-29 18:06:00,74.6,46.6,29.97,South,186,5.0,10.0,37,0.00,,---,0.00,VWS V14.01,2013-09-29 23:06:00,
2013-09-29 18:10:00,77.5,46.2,29.98,WSW,251,10.0,21.0,33,0.00,,---,0.00,VWS V14.01,2013-09-29 23:10:00,
2013-09-29 18:11:00,74.3,47.1,29.97,SSW,211,2.0,7.0,38,0.00,,---,0.00,VWS V14.01,2013-09-29 23:11:00,
2013-09-29 18:15:00,77.4,46.1,29.98,SSW,209,3.0,14.0,33,0.00,,---,0.00,VWS V14.01,2013-09-29 23:15:00,
2013-09-29 18:16:00,74.2,47.0,29.97,SSW,202,9.0,12.0,38,0.00,,---,0.00,VWS V14.01,2013-09-29 23:16:00,
2013-09-29 18:20:00,77.3,46.0,29.98,South,185,14.0,14.0,33,0.00,,---,0.00,VWS V14.01,2013-09-29 23:20:00,
2013-09-29 18:21:00,74.2,47.7,29.97,South,180,0.0,5.0,39,0.00,,---,0.00,VWS V14.01,2013-09-29 23:21:00,
2013-09-29 18:25:00,77.1,47.4,29.98,SSW,210,6.0,14.0,35,0.00,,---,0.00,VWS V14.01,2013-09-29 23:25:00,
2013-09-29 18:26:00,73.9,47.4,29.97,SSE,148,6.0,9.0,39,0.00,,---,0.00,VWS V14.01,2013-09-29 23:26:00,
2013-09-29 18:30:00,77.0,46.5,29.97,WSW,240,1.0,15.0,34,0.00,,---,0.00,VWS V14.01,2013-09-29 23:30:00,
2013-09-29 18:31:00,73.5,47.7,29.97,South,189,0.0,10.0,40,0.00,,---,0.00,VWS V14.01,2013-09-29 23:31:00,
2013-09-29 18:35:00,76.6,46.2,29.97,SSW,213,6.0,17.0,34,0.00,,---,0.00,VWS V14.01,2013-09-29 23:35:00,
2013-09-29 18:36:00,73.1,47.4,29.97,SSW,199,6.0,10.0,40,0.00,,---,0.00,VWS V14.01,2013-09-29 23:36:00,
2013-09-29 18:40:00,76.1,46.5,29.97,SW,227,4.0,15.0,35,0.00,,---,0.00,VWS V14.01,2013-09-29 23:40:00,
2013-09-29 18:41:00,72.7,47.7,29.96,South,190,9.0,9.0,41,0.00,,---,0.00,VWS V14.01,2013-09-29 23:41:00,
2013-09-29 18:45:00,75.7,46.9,29.97,SSE,165,5.0,12.0,36,0.00,,---,0.00,VWS V14.01,2013-09-29 23:45:00,
2013-09-29 18:46:00,72.3,47.3,29.97,SSW,201,3.0,8.0,41,0.00,,---,0.00,VWS V14.01,2013-09-29 23:46:00,
2013-09-29 18:50:00,75.3,46.5,29.97,SSW,200,1.0,14.0,36,0.00,,---,0.00,VWS V14.01,2013-09-29 23:50:00,
2013-09-29 18:51:00,71.8,46.9,29.96,WSW,243,4.0,10.0,41,0.00,,---,0.00,VWS V14.01,2013-09-29 23:51:00,
2013-09-29 18:55:00,75.0,46.3,29.97,South,184,2.0,12.0,36,0.00,,---,0.00,VWS V14.01,2013-09-29 23:55:00,
2013-09-29 18:56:00,71.4,47.8,29.97,SSW,198,6.0,10.0,43,0.00,,---,0.00,VWS V14.01,2013-09-29 23:56:00,
2013-09-29 19:00:00,74.8,46.8,29.97,South,183,6.0,13.0,37,0.00,,---,0.00,VWS V14.01,2013-09-30 00:00:00,
2013-09-29 19:01:00,71.0,47.4,29.96,South,185,0.0,5.0,43,0.00,,---,0.00,VWS V14.01,2013-09-30 00:01:00,
2013-09-29 19:05:00,74.6,46.6,29.97,SSW,194,5.0,17.0,37,0.00,,---,0.00,VWS V14.01,2013-09-30 00:05:00,
2013-09-29 19:07:00,70.6,47.0,29.97,South,181,3.0,9.0,43,0.00,,---,0.00,VWS V14.01,2013-09-30 00:07:00,
2013-09-29 19:10:00,74.4,47.2,29.97,SSE,159,7.0,12.0,38,0.00,,---,0.00,VWS V14.01,2013-09-30 00:10:00,
2013-09-29 19:12:00,70.3,46.8,29.97,SSW,192,3.0,11.0,43,0.00,,---,0.00,VWS V14.01,2013-09-30 00:12:00,
2013-09-29 19:15:00,74.3,47.1,29.97,SSE,161,3.0,16.0,38,0.00,,---,0.00,VWS V14.01,2013-09-30 00:15:00,
2013-09-29 19:17:00,69.9,47.0,29.97,SSW,199,4.0,6.0,44,0.00,,---,0.00,VWS V14.01,2013-09-30 00:17:00,
2013-09-29 19:20:00,74.2,47.0,29.97,SW,220,2.0,12.0,38,0.00,,---,0.00,VWS V14.01,2013-09-30 00:20:00,
2013-09-29 19:22:00,69.4,47.2,29.97,South,173,4.0,10.0,45,0.00,,---,0.00,VWS V14.01,2013-09-30 00:22:00,
2013-09-29 19:25:00,74.0,47.5,29.97,SSW,193,6.0,11.0,39,0.00,,---,0.00,VWS V14.01,2013-09-30 00:25:00,
2013-09-29 19:27:00,69.0,47.4,29.97,South,185,0.0,3.0,46,0.00,,---,0.00,VWS V14.01,2013-09-30 00:27:00,
2013-09-29 19:30:00,73.6,47.1,29.97,South,185,1.0,12.0,39,0.00,,---,0.00,VWS V14.01,2013-09-30 00:30:00,
2013-09-29 19:32:00,68.6,47.0,29.97,South,182,0.0,5.0,46,0.00,,---,0.00,VWS V14.01,2013-09-30 00:32:00,
2013-09-29 19:35:00,73.1,48.0,29.97,SW,215,0.0,10.0,41,0.00,,---,0.00,VWS V14.01,2013-09-30 00:35:00,
2013-09-29 19:37:00,68.3,47.3,29.97,South,188,3.0,6.0,47,0.00,,---,0.00,VWS V14.01,2013-09-30 00:37:00,
2013-09-29 19:40:00,72.8,47.8,29.97,South,179,2.0,12.0,41,0.00,,---,0.00,VWS V14.01,2013-09-30 00:40:00,
2013-09-29 19:42:00,67.9,47.0,29.97,South,181,3.0,5.0,47,0.00,,---,0.00,VWS V14.01,2013-09-30 00:42:00,
2013-09-29 19:45:00,72.4,47.4,29.97,SSW,204,4.0,11.0,41,0.00,,---,0.00,VWS V14.01,2013-09-30 00:45:00,
2013-09-29 19:47:00,67.6,47.2,29.97,South,184,2.0,7.0,48,0.00,,---,0.00,VWS V14.01,2013-09-30 00:47:00,
2013-09-29 19:50:00,72.0,47.7,29.97,SSW,198,4.0,9.0,42,0.00,,---,0.00,VWS V14.01,2013-09-30 00:50:00,
2013-09-29 19:52:00,67.2,47.4,29.97,South,182,1.0,7.0,49,0.00,,---,0.00,VWS V14.01,2013-09-30 00:52:00,
2013-09-29 19:55:00,71.5,47.2,29.97,SSE,158,1.0,10.0,42,0.00,,---,0.00,VWS V14.01,2013-09-30 00:55:00,
2013-09-29 19:57:00,66.9,47.1,29.98,South,182,2.0,7.0,49,0.00,,---,0.00,VWS V14.01,2013-09-30 00:57:00,
2013-09-29 20:00:00,71.1,47.5,29.96,South,177,4.0,10.0,43,0.00,,---,0.00,VWS V14.01,2013-09-30 01:00:00,
2013-09-29 20:02:00,66.6,46.9,29.97,South,169,0.0,7.0,49,0.00,,---,0.00,VWS V14.01,2013-09-30 01:02:00,
2013-09-29 20:05:00,70.7,47.1,29.97,South,174,4.0,6.0,43,0.00,,---,0.00,VWS V14.01,2013-09-30 01:05:00,
2013-09-29 20:07:00,66.3,47.1,29.97,South,189,2.0,9.0,50,0.00,,---,0.00,VWS V14.01,2013-09-30 01:07:00,
2013-09-29 20:10:00,70.4,46.9,29.97,South,189,2.0,10.0,43,0.00,,---,0.00,VWS V14.01,2013-09-30 01:10:00,
2013-09-29 20:12:00,66.0,46.8,29.97,South,186,4.0,9.0,50,0.00,,---,0.00,VWS V14.01,2013-09-30 01:12:00,
2013-09-29 20:15:00,70.0,47.1,29.97,South,186,3.0,11.0,44,0.00,,---,0.00,VWS V14.01,2013-09-30 01:15:00,
2013-09-29 20:18:00,65.7,47.1,29.98,SSW,203,4.0,5.0,51,0.00,,---,0.00,VWS V14.01,2013-09-30 01:18:00,
2013-09-29 20:20:00,69.6,47.3,29.97,South,188,2.0,9.0,45,0.00,,---,0.00,VWS V14.01,2013-09-30 01:20:00,
2013-09-29 20:23:00,65.5,46.9,29.98,South,187,0.0,6.0,51,0.00,,---,0.00,VWS V14.01,2013-09-30 01:23:00,
2013-09-29 20:25:00,69.2,47.0,29.97,South,178,1.0,10.0,45,0.00,,---,0.00,VWS V14.01,2013-09-30 01:25:00,
2013-09-29 20:28:00,65.3,47.2,29.98,SSW,192,5.0,12.0,52,0.00,,---,0.00,VWS V14.01,2013-09-30 01:28:00,
2013-09-29 20:30:00,68.8,47.2,29.97,SSW,196,5.0,10.0,46,0.00,,---,0.00,VWS V14.01,2013-09-30 01:30:00,
2013-09-29 20:33:00,65.1,47.1,29.98,South,187,8.0,10.0,52,0.00,,---,0.00,VWS V14.01,2013-09-30 01:33:00,
2013-09-29 20:35:00,68.4,47.4,29.97,South,187,0.0,7.0,47,0.00,,---,0.00,VWS V14.01,2013-09-30 01:35:00,
2013-09-29 20:38:00,65.1,47.1,29.97,SSW,204,5.0,7.0,52,0.00,,---,0.00,VWS V14.01,2013-09-30 01:38:00,
2013-09-29 20:40:00,68.0,47.0,29.97,South,184,4.0,6.0,47,0.00,,---,0.00,VWS V14.01,2013-09-30 01:40:00,
2013-09-29 20:43:00,65.0,47.0,29.97,South,178,5.0,11.0,52,0.00,,---,0.00,VWS V14.01,2013-09-30 01:43:00,
2013-09-29 20:45:00,67.7,47.3,29.97,SE,141,1.0,9.0,48,0.00,,---,0.00,VWS V14.01,2013-09-30 01:45:00,
2013-09-29 20:48:00,65.1,47.1,29.98,SSE,159,7.0,14.0,52,0.00,,---,0.00,VWS V14.01,2013-09-30 01:48:00,
2013-09-29 20:50:00,67.3,47.0,29.97,South,187,3.0,9.0,48,0.00,,---,0.00,VWS V14.01,2013-09-30 01:50:00,
2013-09-29 20:53:00,65.1,47.1,29.98,SW,215,3.0,9.0,52,0.00,,---,0.00,VWS V14.01,2013-09-30 01:53:00,
2013-09-29 20:55:00,67.0,47.2,29.98,South,174,1.0,7.0,49,0.00,,---,0.00,VWS V14.01,2013-09-30 01:55:00,
2013-09-29 20:58:00,65.1,46.5,29.99,South,180,3.0,11.0,51,0.00,,---,0.00,VWS V14.01,2013-09-30 01:58:00,
2013-09-29 21:00:00,66.7,47.0,29.97,SSW,198,2.0,7.0,49,0.00,,---,0.00,VWS V14.01,2013-09-30 02:00:00,
2013-09-29 21:03:00,65.1,47.1,29.98,SSW,192,5.0,7.0,52,0.00,,---,0.00,VWS V14.01,2013-09-30 02:03:00,
2013-09-29 21:05:00,66.5,47.3,29.97,SSW,192,3.0,7.0,50,0.00,,---,0.00,VWS V14.01,2013-09-30 02:05:00,
2013-09-29 21:08:00,65.0,47.0,29.98,SSW,192,2.0,12.0,52,0.00,,---,0.00,VWS V14.01,2013-09-30 02:08:00,
2013-09-29 21:10:00,66.2,47.0,29.97,South,190,2.0,9.0,50,0.00,,---,0.00,VWS V14.01,2013-09-30 02:10:00,
2013-09-29 21:13:00,64.8,46.8,29.98,SSW,202,10.0,12.0,52,0.00,,---,0.00,VWS V14.01,2013-09-30 02:13:00,
2013-09-29 21:15:00,65.9,47.3,29.98,South,172,3.0,9.0,51,0.00,,---,0.00,VWS V14.01,2013-09-30 02:15:00,
2013-09-29 21:18:00,64.7,46.7,29.98,SSW,204,7.0,11.0,52,0.00,,---,0.00,VWS V14.01,2013-09-30 02:18:00,
2013-09-29 21:20:00,65.6,47.0,29.98,South,184,4.0,10.0,51,0.00,,---,0.00,VWS V14.01,2013-09-30 02:20:00,
2013-09-29 21:23:00,64.6,46.6,29.98,SSW,202,10.0,13.0,52,0.00,,---,0.00,VWS V14.01,2013-09-30 02:23:00,
2013-09-29 21:25:00,65.4,47.3,29.98,South,176,4.0,7.0,52,0.00,,---,0.00,VWS V14.01,2013-09-30 02:25:00,
2013-09-29 21:29:00,64.5,47.0,29.98,South,184,3.0,13.0,53,0.00,,---,0.00,VWS V14.01,2013-09-30 02:29:00,
2013-09-29 21:30:00,65.2,47.2,29.98,South,178,2.0,12.0,52,0.00,,---,0.00,VWS V14.01,2013-09-30 02:30:00,
2013-09-29 21:34:00,64.4,46.4,29.98,South,172,10.0,12.0,52,0.00,,---,0.00,VWS V14.01,2013-09-30 02:34:00,
2013-09-29 21:35:00,65.1,47.1,29.97,South,191,4.0,10.0,52,0.00,,---,0.00,VWS V14.01,2013-09-30 02:35:00,
2013-09-29 21:39:00,64.4,46.9,29.98,SSE,167,9.0,13.0,53,0.00,,---,0.00,VWS V14.01,2013-09-30 02:39:00,
2013-09-29 21:40:00,65.0,47.0,29.97,SSE,167,3.0,11.0,52,0.00,,---,0.00,VWS V14.01,2013-09-30 02:40:00,
2013-09-29 21:44:00,64.3,46.8,29.98,SW,223,5.0,16.0,53,0.00,,---,0.00,VWS V14.01,2013-09-30 02:44:00,
2013-09-29 21:45:00,65.0,47.0,29.98,South,184,4.0,11.0,52,0.00,,---,0.00,VWS V14.01,2013-09-30 02:45:00,
2013-09-29 21:49:00,64.2,46.7,29.98,SSW,193,0.0,13.0,53,0.00,,---,0.00,VWS V14.01,2013-09-30 02:49:00,
2013-09-29 21:50:00,65.1,47.1,29.98,SSW,208,9.0,14.0,52,0.00,,---,0.00,VWS V14.01,2013-09-30 02:50:00,
2013-09-29 21:54:00,64.0,47.0,29.98,South,178,6.0,14.0,54,0.00,,---,0.00,VWS V14.01,2013-09-30 02:54:00,
2013-09-29 21:55:00,65.2,47.2,29.98,SSW,194,1.0,9.0,52,0.00,,---,0.00,VWS V14.01,2013-09-30 02:55:00,
2013-09-29 21:59:00,63.8,46.8,29.99,South,169,5.0,12.0,54,0.00,,---,0.00,VWS V14.01,2013-09-30 02:59:00,
2013-09-29 22:00:00,65.1,47.1,29.99,South,171,2.0,11.0,52,0.00,,---,0.00,VWS V14.01,2013-09-30 03:00:00,
2013-09-29 22:04:00,63.6,47.2,29.99,South,189,2.0,7.0,55,0.00,,---,0.00,VWS V14.01,2013-09-30 03:04:00,
2013-09-29 22:05:00,65.0,47.0,29.98,South,188,2.0,7.0,52,0.00,,---,0.00,VWS V14.01,2013-09-30 03:05:00,
2013-09-29 22:09:00,63.3,46.9,29.99,SSE,163,5.0,11.0,55,0.00,,---,0.00,VWS V14.01,2013-09-30 03:09:00,
2013-09-29 22:10:00,64.9,46.9,29.98,SSW,196,3.0,12.0,52,0.00,,---,0.00,VWS V14.01,2013-09-30 03:10:00,
2013-09-29 22:14:00,63.0,47.1,29.99,South,183,2.0,6.0,56,0.00,,---,0.00,VWS V14.01,2013-09-30 03:14:00,
2013-09-29 22:15:00,64.7,46.7,29.98,South,188,3.0,15.0,52,0.00,,---,0.00,VWS V14.01,2013-09-30 03:15:00,
2013-09-29 22:19:00,62.8,47.4,29.99,South,190,5.0,8.0,57,0.00,,---,0.00,VWS V14.01,2013-09-30 03:19:00,
2013-09-29 22:20:00,64.7,46.7,29.98,South,171,7.0,11.0,52,0.00,,---,0.00,VWS V14.01,2013-09-30 03:20:00,
2013-09-29 22:24:00,62.6,47.2,29.99,South,187,7.0,12.0,57,0.00,,---,0.00,VWS V14.01,2013-09-30 03:24:00,
2013-09-29 22:25:00,64.5,46.5,29.98,SSE,151,9.0,13.0,52,0.00,,---,0.00,VWS V14.01,2013-09-30 03:25:00,
2013-09-29 22:29:00,62.5,47.1,29.99,South,180,2.0,8.0,57,0.00,,---,0.00,VWS V14.01,2013-09-30 03:29:00,
2013-09-29 22:30:00,64.5,47.0,29.98,South,171,5.0,13.0,53,0.00,,---,0.00,VWS V14.01,2013-09-30 03:30:00,
2013-09-29 22:35:00,62.3,47.3,29.99,SSW,196,0.0,8.0,58,0.00,,---,0.00,VWS V14.01,2013-09-30 03:35:00,
2013-09-29 22:40:00,62.1,47.2,29.99,South,190,4.0,7.0,58,0.00,,---,0.00,VWS V14.01,2013-09-30 03:40:00,
2013-09-29 22:45:00,61.9,47.4,30.00,South,178,1.0,9.0,59,0.00,,---,0.00,VWS V14.01,2013-09-30 03:45:00,
2013-09-29 22:50:00,61.7,47.2,30.00,South,181,4.0,8.0,59,0.00,,---,0.00,VWS V14.01,2013-09-30 03:50:00,
2013-09-29 22:55:00,61.5,47.1,29.99,South,188,0.0,10.0,59,0.00,,---,0.00,VWS V14.01,2013-09-30 03:55:00,
2013-09-29 23:00:00,61.4,47.4,30.00,SSW,198,4.0,9.0,60,0.00,,---,0.00,VWS V14.01,2013-09-30 04:00:00,
2013-09-29 23:01:00,61.4,47.4,30.00,SSW,194,2.0,4.0,60,0.00,,---,0.00,VWS V14.01,2013-09-30 04:01:00,
2013-09-29 23:02:00,61.4,47.4,30.00,SSW,205,5.0,5.0,60,0.00,,---,0.00,VWS V14.01,2013-09-30 04:02:00,
2013-09-29 23:03:00,61.4,47.4,29.99,SSW,201,3.0,7.0,60,0.00,,---,0.00,VWS V14.01,2013-09-30 04:03:00,
2013-09-29 23:05:00,63.5,47.1,29.99,SSW,198,0.0,7.0,55,0.00,,---,0.00,VWS V14.01,2013-09-30 04:05:00,
2013-09-29 23:08:00,61.3,48.2,29.99,South,188,2.0,7.0,62,0.00,,---,0.00,VWS V14.01,2013-09-30 04:08:00,
2013-09-29 23:10:00,63.3,47.3,29.99,SSW,205,0.0,11.0,56,0.00,,---,0.00,VWS V14.01,2013-09-30 04:10:00,
2013-09-29 23:13:00,61.2,47.7,29.99,SW,217,4.0,13.0,61,0.00,,---,0.00,VWS V14.01,2013-09-30 04:13:00,
2013-09-29 23:15:00,62.9,47.0,29.99,South,182,3.0,6.0,56,0.00,,---,0.00,VWS V14.01,2013-09-30 04:15:00,
2013-09-29 23:18:00,61.1,47.6,29.99,SSE,168,4.0,9.0,61,0.00,,---,0.00,VWS V14.01,2013-09-30 04:18:00,
2013-09-29 23:20:00,62.7,47.3,29.99,South,190,2.0,8.0,57,0.00,,---,0.00,VWS V14.01,2013-09-30 04:20:00,
2013-09-29 23:23:00,60.9,47.4,29.99,South,172,5.0,13.0,61,0.00,,---,0.00,VWS V14.01,2013-09-30 04:23:00,
2013-09-29 23:25:00,62.7,47.3,29.99,South,175,4.0,12.0,57,0.00,,---,0.00,VWS V14.01,2013-09-30 04:25:00,
2013-09-29 23:28:00,60.8,47.7,29.99,South,176,7.0,18.0,62,0.00,,---,0.00,VWS V14.01,2013-09-30 04:28:00,
2013-09-29 23:30:00,62.5,47.1,29.99,South,182,2.0,8.0,57,0.00,,---,0.00,VWS V14.01,2013-09-30 04:30:00,
2013-09-29 23:33:00,60.7,47.6,29.99,South,169,2.0,12.0,62,0.00,,---,0.00,VWS V14.01,2013-09-30 04:33:00,
2013-09-29 23:35:00,62.3,47.3,29.99,South,184,3.0,8.0,58,0.00,,---,0.00,VWS V14.01,2013-09-30 04:35:00,
2013-09-29 23:38:00,60.6,47.5,29.99,SSW,201,9.0,11.0,62,0.00,,---,0.00,VWS V14.01,2013-09-30 04:38:00,
2013-09-29 23:40:00,62.1,47.2,29.99,SSW,197,2.0,7.0,58,0.00,,---,0.00,VWS V14.01,2013-09-30 04:40:00,
2013-09-29 23:43:00,60.6,47.5,29.99,SE,130,11.0,11.0,62,0.00,,---,0.00,VWS V14.01,2013-09-30 04:43:00,
2013-09-29 23:45:00,61.9,47.4,30.00,South,183,1.0,9.0,59,0.00,,---,0.00,VWS V14.01,2013-09-30 04:45:00,
2013-09-29 23:49:00,60.6,47.5,29.99,SSW,200,3.0,13.0,62,0.00,,---,0.00,VWS V14.01,2013-09-30 04:49:00,
2013-09-29 23:50:00,61.6,47.2,30.00,South,181,0.0,8.0,59,0.00,,---,0.00,VWS V14.01,2013-09-30 04:50:00,
2013-09-29 23:54:00,60.7,47.6,29.98,SSW,203,6.0,13.0,62,0.00,,---,0.00,VWS V14.01,2013-09-30 04:54:00,
2013-09-29 23:55:00,61.5,47.1,29.99,South,189,4.0,10.0,59,0.00,,---,0.00,VWS V14.01,2013-09-30 04:55:00,
2013-09-29 23:59:00,60.8,47.7,29.99,SSW,205,1.0,7.0,62,0.00,,---,0.00,VWS V14.01,2013-09-30 04:59:00,